Weather History for KPNT - December, 2013

Change the Weather History Date:

Thursday, December 5, 2013

  Actual Average Record
Temperature  
Mean Temperature 30 °F -  
Max Temperature 37 °F 39 °F 68 °F (2001)
Min Temperature 23 °F 25 °F -1 °F (1991)
Degree Days  
Heating Degree Days 35    
Moisture  
Dew Point 20 °F    
Average Humidity 76    
Maximum Humidity 93    
Minimum Humidity 64    
Precipitation  
Precipitation 0.00 in - - ()
Sea Level Pressure  
Sea Level Pressure 30.07 in    
Wind  
Wind Speed 18 mph (WNW)    
Max Wind Speed 24 mph    
Max Gust Speed 31 mph    
Visibility 10 miles    
Events      
Averages and records for this station are not official NWS values.
T = Trace of Precipitation, MM = Missing Value Source: NWS Daily Summary

Daily Weather History Graph

Daily Weather History Graph

Search for Another Location

Airport or City:

Trip Planner

Search our weather history database for the weather conditions in past years. The results will help you decide how hot, cold, wet, or windy it might be!

Date:

Astronomy

Dec. 05, 2013 Rise Set
Actual Time 7:03 AM CST 4:26 PM CST
Civil Twilight 6:33 AM CST 4:57 PM CST
Nautical Twilight 5:58 AM CST 5:31 PM CST
Astronomical Twilight 5:25 AM CST 6:04 PM CST
Moon 9:23 AM CST (12/5) 7:47 PM CST (12/5)
Length of Visible Light 10h 23m
Length of Day
9h 22m
Waxing Crescent, 11% of the Moon is Illuminated
Dec 5
Waxing Crescent
Dec 9
First Quarter
Dec 17
Full
Dec 25
Last Quarter
Jan 1
New

Hourly Weather History & Observations

Time (CST) Temp. Windchill Dew Point Humidity Pressure Visibility Wind Dir Wind Speed Gust Speed Precip Events Conditions
12:15 AM 37.4 °F 26.9 °F 33.8 °F 87% 29.78 in 10.0 mi WNW 20.7 mph 31.1 mph N/A   Overcast
12:35 AM 35.6 °F 25.5 °F 33.8 °F 93% 29.78 in 10.0 mi WNW 17.3 mph - N/A   Overcast
12:55 AM 35.6 °F 25.2 °F 33.8 °F 93% 29.79 in 10.0 mi West 18.4 mph 28.8 mph N/A   Overcast
1:15 AM 35.6 °F 24.5 °F 33.8 °F 93% 29.80 in 10.0 mi West 20.7 mph 26.5 mph N/A   Overcast
1:35 AM 35.6 °F 25.2 °F 32.0 °F 87% 29.81 in 10.0 mi West 18.4 mph 25.3 mph N/A   Scattered Clouds
1:55 AM 35.6 °F 24.5 °F 32.0 °F 87% 29.82 in 10.0 mi West 20.7 mph 28.8 mph N/A   Mostly Cloudy
2:15 AM 33.8 °F 23.2 °F 30.2 °F 87% 29.83 in 10.0 mi West 17.3 mph - N/A   Overcast
2:35 AM 33.8 °F 21.9 °F 30.2 °F 87% 29.86 in 10.0 mi West 21.9 mph 25.3 mph N/A   Overcast
2:55 AM 32.0 °F 19.5 °F 28.4 °F 87% 29.87 in 10.0 mi West 21.9 mph 29.9 mph N/A   Overcast
3:15 AM 32.0 °F 19.5 °F 28.4 °F 87% 29.87 in 10.0 mi West 21.9 mph 28.8 mph N/A   Overcast
3:35 AM 30.2 °F 18.1 °F 28.4 °F 93% 29.88 in 10.0 mi West 18.4 mph 27.6 mph N/A   Overcast
3:55 AM 30.2 °F 18.5 °F 28.4 °F 93% 29.88 in 10.0 mi West 17.3 mph - N/A   Overcast
4:15 AM 30.2 °F 17.4 °F 28.4 °F 93% 29.88 in 10.0 mi West 20.7 mph 24.2 mph N/A   Overcast
4:35 AM 30.2 °F 18.5 °F 26.6 °F 86% 29.90 in 10.0 mi WNW 17.3 mph 25.3 mph N/A   Overcast
4:55 AM 28.4 °F 15.4 °F 26.6 °F 93% 29.91 in 10.0 mi West 19.6 mph 25.3 mph N/A   Overcast
5:15 AM 28.4 °F 16.2 °F 24.8 °F 86% 29.92 in 10.0 mi West 17.3 mph - N/A   Overcast
5:35 AM 28.4 °F 14.1 °F 26.6 °F 93% 29.95 in 10.0 mi West 24.2 mph 31.1 mph N/A   Overcast
5:55 AM 28.4 °F 15.8 °F 24.8 °F 86% 29.96 in 10.0 mi West 18.4 mph - N/A   Overcast
6:15 AM 28.4 °F 14.7 °F 23.0 °F 80% 29.98 in 10.0 mi West 21.9 mph 26.5 mph N/A   Overcast
6:35 AM 28.4 °F 15.1 °F 23.0 °F 80% 29.99 in 10.0 mi West 20.7 mph 26.5 mph N/A   Mostly Cloudy
6:55 AM 26.6 °F 12.7 °F 23.0 °F 86% 29.99 in 10.0 mi West 20.7 mph 25.3 mph N/A   Scattered Clouds
7:15 AM 26.6 °F 13.4 °F 21.2 °F 80% 30.00 in 10.0 mi West 18.4 mph - N/A   Scattered Clouds
7:35 AM 26.6 °F 13.1 °F 21.2 °F 80% 30.02 in 10.0 mi West 19.6 mph 27.6 mph N/A   Scattered Clouds
7:55 AM 26.6 °F 12.4 °F 21.2 °F 80% 30.03 in 10.0 mi West 21.9 mph 25.3 mph N/A   Mostly Cloudy
8:15 AM 26.6 °F 12.4 °F 21.2 °F 80% 30.04 in 10.0 mi WNW 21.9 mph 29.9 mph N/A   Mostly Cloudy
8:35 AM 26.6 °F 11.7 °F 19.4 °F 74% 30.05 in 10.0 mi WNW 24.2 mph 29.9 mph N/A   Overcast
8:55 AM 24.8 °F 10.7 °F 19.4 °F 80% 30.05 in 10.0 mi West 19.6 mph 28.8 mph N/A   Overcast
9:15 AM 24.8 °F 10.0 °F 19.4 °F 80% 30.06 in 10.0 mi West 21.9 mph 26.5 mph N/A   Overcast
9:35 AM 24.8 °F 10.0 °F 17.6 °F 74% 30.07 in 10.0 mi West 21.9 mph - N/A   Scattered Clouds
9:55 AM 24.8 °F 10.3 °F 19.4 °F 80% 30.07 in 10.0 mi West 20.7 mph - N/A   Scattered Clouds
10:15 AM 24.8 °F 11.5 °F 19.4 °F 80% 30.09 in 10.0 mi West 17.3 mph - N/A   Mostly Cloudy
10:35 AM 24.8 °F 11.1 °F 17.6 °F 74% 30.10 in 10.0 mi WNW 18.4 mph 23.0 mph N/A   Scattered Clouds
10:55 AM 24.8 °F 11.1 °F 17.6 °F 74% 30.10 in 10.0 mi West 18.4 mph 21.9 mph N/A   Scattered Clouds
11:15 AM 24.8 °F 11.5 °F 15.8 °F 69% 30.10 in 10.0 mi WNW 17.3 mph - N/A   Scattered Clouds
11:35 AM 24.8 °F 11.1 °F 15.8 °F 69% 30.08 in 10.0 mi WNW 18.4 mph 24.2 mph N/A   Clear
11:55 AM 24.8 °F 11.9 °F 15.8 °F 69% 30.09 in 10.0 mi WNW 16.1 mph 20.7 mph N/A   Clear
12:15 PM 26.6 °F 14.3 °F 17.6 °F 69% 30.10 in 10.0 mi West 16.1 mph 19.6 mph N/A   Clear
12:35 PM 26.6 °F 14.7 °F 17.6 °F 69% 30.10 in 10.0 mi West 15.0 mph - N/A   Clear
12:55 PM 26.6 °F 14.3 °F 17.6 °F 69% 30.11 in 10.0 mi WNW 16.1 mph - N/A   Clear
1:15 PM 26.6 °F 13.4 °F 15.8 °F 64% 30.11 in 10.0 mi WNW 18.4 mph - N/A   Clear
1:35 PM 26.6 °F 15.2 °F 15.8 °F 64% 30.11 in 10.0 mi WNW 13.8 mph 23.0 mph N/A   Clear
1:55 PM 26.6 °F 14.7 °F 15.8 °F 64% 30.12 in 10.0 mi WNW 15.0 mph - N/A   Clear
2:15 PM 26.6 °F 14.7 °F 15.8 °F 64% 30.13 in 10.0 mi West 15.0 mph 23.0 mph N/A   Clear
2:35 PM 26.6 °F 13.8 °F 15.8 °F 64% 30.14 in 10.0 mi WNW 17.3 mph - N/A   Clear
2:55 PM 24.8 °F 12.9 °F 15.8 °F 69% 30.14 in 10.0 mi West 13.8 mph - N/A   Clear
3:15 PM 24.8 °F 12.4 °F 15.8 °F 69% 30.14 in 10.0 mi West 15.0 mph - N/A   Clear
3:35 PM 24.8 °F 12.9 °F 15.8 °F 69% 30.15 in 10.0 mi WNW 13.8 mph - N/A   Clear
3:55 PM 24.8 °F 13.4 °F 15.8 °F 69% 30.14 in 10.0 mi WNW 12.7 mph - N/A   Clear
4:15 PM 24.8 °F 12.9 °F 15.8 °F 69% 30.15 in 10.0 mi WNW 13.8 mph - N/A   Clear
4:35 PM 24.8 °F 13.4 °F 15.8 °F 69% 30.16 in 10.0 mi WNW 12.7 mph - N/A   Clear
4:55 PM 24.8 °F 12.4 °F 15.8 °F 69% 30.17 in 10.0 mi WNW 15.0 mph - N/A   Clear
5:15 PM 24.8 °F 13.4 °F 15.8 °F 69% 30.20 in 10.0 mi WNW 12.7 mph - N/A   Clear
5:35 PM 24.8 °F 12.9 °F 15.8 °F 69% 30.21 in 10.0 mi WNW 13.8 mph - N/A   Clear
5:55 PM 24.8 °F 12.9 °F 15.8 °F 69% 30.21 in 10.0 mi West 13.8 mph - N/A   Scattered Clouds
6:15 PM 24.8 °F 14.0 °F 15.8 °F 69% 30.20 in 10.0 mi NW 11.5 mph - N/A   Mostly Cloudy
6:35 PM 24.8 °F 12.9 °F 15.8 °F 69% 30.22 in 10.0 mi WNW 13.8 mph 18.4 mph N/A   Scattered Clouds
6:55 PM 24.8 °F 14.0 °F 14.0 °F 64% 30.23 in 10.0 mi WNW 11.5 mph - N/A   Scattered Clouds
7:15 PM 24.8 °F 14.6 °F 15.8 °F 69% 30.23 in 10.0 mi WNW 10.4 mph - N/A   Clear
7:35 PM 24.8 °F 12.9 °F 15.8 °F 69% 30.22 in 10.0 mi WNW 13.8 mph - N/A   Clear
7:55 PM 24.8 °F 12.9 °F 14.0 °F 64% 30.24 in 10.0 mi WNW 13.8 mph - N/A   Clear
8:15 PM 24.8 °F 14.6 °F 14.0 °F 64% 30.24 in 10.0 mi WNW 10.4 mph - N/A   Clear
8:35 PM 24.8 °F 15.3 °F 15.8 °F 69% 30.23 in 10.0 mi NW 9.2 mph - N/A   Clear
8:55 PM 23.0 °F 11.1 °F 15.8 °F 74% 30.21 in 10.0 mi NW 12.7 mph - N/A   Clear
9:15 PM 23.0 °F 10.6 °F 15.8 °F 74% 30.24 in 10.0 mi NW 13.8 mph - N/A   Clear
9:35 PM 23.0 °F 10.6 °F 14.0 °F 68% 30.24 in 10.0 mi WNW 13.8 mph 19.6 mph N/A   Clear
9:55 PM 23.0 °F 10.1 °F 14.0 °F 68% 30.25 in 10.0 mi NW 15.0 mph - N/A   Clear
10:15 PM 23.0 °F 11.7 °F 14.0 °F 68% 30.25 in 10.0 mi NW 11.5 mph - N/A   Clear
10:35 PM 23.0 °F 9.6 °F 14.0 °F 68% 30.28 in 10.0 mi WNW 16.1 mph - N/A   Clear
10:55 PM 23.0 °F 10.6 °F 14.0 °F 68% 30.26 in 10.0 mi NW 13.8 mph - N/A   Clear